(292688) = 2006 UM97

Discovered at Kitt Peak on 2006-10-18 by Spacewatch.

Orbit

Orbit type: Main Belt

Note: WebGL enabled browser required.

epoch2023-09-13.0
epoch JD2460200.5
perihelion date2023-05-30.60415
perihelion JD2460095.10415
argument of perihelion (°)220.89457
ascending node (°)84.36051
inclination (°)3.22846
eccentricity0.0670544
perihelion distance (AU)2.5046537
Tisserand w.r.t. Jupiter3.4
ΔV w.r.t. Earth (km/sec)9.9
semimajor axis (AU)2.6846728
mean anomaly (°)23.61513
mean daily motion (°/day)0.22406130
aphelion distance (AU)2.865
period (years)4.4
P-vector [x]0.57618367
P-vector [y]-0.73444754
P-vector [z]-0.35860730
Q-vector [x]0.81539643
Q-vector [y]0.54662888
Q-vector [z]0.19059254
absolute magnitude17.23
phase slope0.15
uncertainty0
referenceMPO 779100
observations used251
oppositions14
arc length (days)7149
first opposition used2004
last opposition used2023
residual rms (arc-secs)0.79
perturbers coarse indicatorM-v
perturbers precise indicator003Ek
first observation date used2004-03-18.0
last observation date used2023-10-14.0
computer nameMPCLINUX
JD of orbit computation2456909.238182
perihelion JD uncertainty (days)2.2876E-04
argument of perihelion uncertainty (°)1.0094E-04
ascending node uncertainty (°)8.3172E-05
inclination uncertainty (°)4.2533E-06
eccentricity uncertainty 4.4630E-08
perihelion distance uncertainty (AU)1.3409E-07
Minimum Orbit Intersection Distances (in AU)
for orbit epoch: 2460200.5, reference: E2023-U02
Mercury2.06043
Venus1.77649
Earth1.48993
Mars1.07169
Jupiter2.26977
Saturn6.21623
Uranus15.6213
Neptune27.142

Observations

256 total observations over interval: 2004 03 18.34410 – 2023 10 14.268624
These data are available for download (format description).

Date (UT) J2000 RA J2000 Dec Magn Location Ref
2004 03 18.34410 11 11 46.22 +10 31 24.7 21.8 V 691 – Steward Observatory, Kitt Peak-Spacewatch MPS 291499
2004 03 18.37444 11 11 44.69 +10 31 33.1 21.8 V 691 – Steward Observatory, Kitt Peak-Spacewatch MPS 291499
2004 03 18.40493 11 11 43.13 +10 31 41.7 21.5 V 691 – Steward Observatory, Kitt Peak-Spacewatch MPS 291499
2006 10 02.39854 02 44 28.17 +11 46 47.3 21.0 V G96 – Mt. Lemmon Survey MPS 186562
2006 10 02.40523 02 44 27.92 +11 46 46.0 20.4 V G96 – Mt. Lemmon Survey MPS 186562
2006 10 02.41192 02 44 27.70 +11 46 44.6 20.8 V G96 – Mt. Lemmon Survey MPS 186562
2006 10 02.41870 02 44 27.49 +11 46 44.2 21.2 V G96 – Mt. Lemmon Survey MPS 186562
2006 10 18.29195 02 33 17.16 +10 54 40.8 21.3 V 691 – Steward Observatory, Kitt Peak-Spacewatch MPS 184323
2006 10 18.30933 02 33 16.25 +10 54 37.4 21.2 V 691 – Steward Observatory, Kitt Peak-Spacewatch MPS 184323
2006 10 18.32670 02 33 15.35 +10 54 33.6 21.5 V 691 – Steward Observatory, Kitt Peak-Spacewatch MPS 184323
2006 10 22.26541 02 29 52.01 +10 39 52.0 21.0 V 691 – Steward Observatory, Kitt Peak-Spacewatch MPS 184323
2006 10 22.28278 02 29 51.05 +10 39 47.4 21.0 V 691 – Steward Observatory, Kitt Peak-Spacewatch MPS 184323
2006 10 22.30014 02 29 50.11 +10 39 44.4 20.9 V 691 – Steward Observatory, Kitt Peak-Spacewatch MPS 184323
2006 10 31.22447 02 21 47.05 +10 06 23.9 20.1 V G96 – Mt. Lemmon Survey MPS 185710
2006 10 31.23182 02 21 46.65 +10 06 22.7 20.2 V G96 – Mt. Lemmon Survey MPS 185710
2006 10 31.23918 02 21 46.22 +10 06 20.8 20.2 V G96 – Mt. Lemmon Survey MPS 185710
2006 10 31.24677 02 21 45.82 +10 06 19.3 20.3 V G96 – Mt. Lemmon Survey MPS 185710
2006 11 16.29961 02 08 04.74 +09 15 51.8 21.0 V G96 – Mt. Lemmon Survey MPS 187171
2006 11 16.30517 02 08 04.48 +09 15 51.1 21.2 V G96 – Mt. Lemmon Survey MPS 187171
2006 11 16.31075 02 08 04.23 +09 15 49.9 21.4 V G96 – Mt. Lemmon Survey MPS 187171
2006 11 16.31634 02 08 03.94 +09 15 49.3 21.2 V G96 – Mt. Lemmon Survey MPS 187171
2008 02 10.37380 08 48 16.77 +21 37 28.0 20.6 V G96 – Mt. Lemmon Survey MPS 291499
2008 02 10.38461 08 48 16.16 +21 37 30.5 20.6 V G96 – Mt. Lemmon Survey MPS 291499
2008 02 10.39304 08 48 15.69 +21 37 32.5 20.4 V G96 – Mt. Lemmon Survey MPS 291499
2008 02 10.40648 08 48 14.97 +21 37 35.6 20.6 V G96 – Mt. Lemmon Survey MPS 291499
2009 04 18.34647 15 21 25.46 -15 01 37.6 21.1 V 691 – Steward Observatory, Kitt Peak-Spacewatch MPS 291499
2009 04 18.36414 15 21 24.65 -15 01 35.1 21.1 V 691 – Steward Observatory, Kitt Peak-Spacewatch MPS 291499
2009 04 18.38181 15 21 23.88 -15 01 32.9 21.3 V 691 – Steward Observatory, Kitt Peak-Spacewatch MPS 291499
2009 04 26.39197 15 15 21.55 -14 41 13.3   691 – Steward Observatory, Kitt Peak-Spacewatch MPS 291499
2009 04 26.40965 15 15 20.60 -14 41 10.1   691 – Steward Observatory, Kitt Peak-Spacewatch MPS 291499
2009 04 26.42730 15 15 19.78 -14 41 07.6   691 – Steward Observatory, Kitt Peak-Spacewatch MPS 291499
2009 04 30.27469 15 12 05.51 -14 30 34.0 20.8 V 691 – Steward Observatory, Kitt Peak-Spacewatch MPS 291499
2009 04 30.29239 15 12 04.53 -14 30 31.2 20.6 V 691 – Steward Observatory, Kitt Peak-Spacewatch MPS 291499
2009 04 30.30755 15 12 03.70 -14 30 29.1 20.8 V 691 – Steward Observatory, Kitt Peak-Spacewatch MPS 291499
2009 05 30.23990 14 46 30.61 -13 17 07.1 21.1 V G96 – Mt. Lemmon Survey MPS 291499
2009 05 30.24700 14 46 30.28 -13 17 07.2 20.7 V G96 – Mt. Lemmon Survey MPS 291499
2009 05 30.25615 14 46 29.89 -13 17 05.7 21.0 V G96 – Mt. Lemmon Survey MPS 291499
2009 05 30.26303 14 46 29.60 -13 17 05.2 22.0 V G96 – Mt. Lemmon Survey MPS 291499
2009 06 23.16406 14 36 30.06 -13 11 44.7 21.6 V G96 – Mt. Lemmon Survey MPS 291499
2009 06 23.17249 14 36 29.91 -13 11 45.7 21.4 V G96 – Mt. Lemmon Survey MPS 291499
2009 06 23.18094 14 36 29.88 -13 11 46.1 21.4 V G96 – Mt. Lemmon Survey MPS 291499
2009 06 23.18931 14 36 29.80 -13 11 46.8 21.1 V G96 – Mt. Lemmon Survey MPS 291499
2010 09 02.10252 23 45 09.90 -07 19 17.1 20.1 R J04 – ESA Optical Ground Station, Tenerife MPS 347137
2010 09 02.12284 23 45 09.01 -07 19 24.0 20.5 R J04 – ESA Optical Ground Station, Tenerife MPS 347137
2010 09 02.14315 23 45 08.05 -07 19 30.5 20.5 R J04 – ESA Optical Ground Station, Tenerife MPS 347137
2010 09 03.35696 23 44 13.16 -07 26 19.3 20.2 V G96 – Mt. Lemmon Survey MPS 346338
2010 09 03.36285 23 44 12.87 -07 26 21.2 20.8 V G96 – Mt. Lemmon Survey MPS 346338
2010 09 03.36877 23 44 12.62 -07 26 23.1 20.1 V G96 – Mt. Lemmon Survey MPS 346338
2013 03 12.32903 12 40 00.12 +01 00 55.3 20.5 V G96 – Mt. Lemmon Survey MPS 460431
2013 03 12.33918 12 39 59.72 +01 00 57.9 21.0 V G96 – Mt. Lemmon Survey MPS 460431
2013 03 12.34923 12 39 59.29 +01 01 01.5 20.2 V G96 – Mt. Lemmon Survey MPS 460431
2013 03 12.35946 12 39 58.78 +01 01 03.9 20.5 V G96 – Mt. Lemmon Survey MPS 460431
2013 03 19.48615 12 34 30.263 +01 39 22.32 20.9 w F51 – Pan-STARRS 1, Haleakala MPS 461557
2013 03 19.50147 12 34 29.492 +01 39 27.22 20.9 w F51 – Pan-STARRS 1, Haleakala MPS 461557
2013 03 19.51689 12 34 28.722 +01 39 32.20 20.8 w F51 – Pan-STARRS 1, Haleakala MPS 461557
2013 03 19.53232 12 34 27.948 +01 39 37.35 20.9 w F51 – Pan-STARRS 1, Haleakala MPS 461557
2013 04 01.27401 12 23 48.51 +02 47 02.0 20.2 V G96 – Mt. Lemmon Survey MPS 462579
2013 04 01.27457 12 23 48.51 +02 47 01.9 20.9 V G96 – Mt. Lemmon Survey MPS 462579
2013 04 01.28350 12 23 48.04 +02 47 05.0 20.5 V G96 – Mt. Lemmon Survey MPS 462579
2013 04 01.28407 12 23 48.01 +02 47 04.6 20.6 V G96 – Mt. Lemmon Survey MPS 462579
2013 04 01.29299 12 23 47.54 +02 47 07.4 20.9 V G96 – Mt. Lemmon Survey MPS 462579
2013 04 01.29356 12 23 47.50 +02 47 07.5 20.8 V G96 – Mt. Lemmon Survey MPS 462579
2013 04 01.30293 12 23 47.00 +02 47 10.5 20.1 V G96 – Mt. Lemmon Survey MPS 462579
2013 04 01.30355 12 23 46.96 +02 47 10.8 20.9 V G96 – Mt. Lemmon Survey MPS 462579
2014 07 08.43892 20 27 41.043 -22 03 13.74 20.2 i F51 – Pan-STARRS 1, Haleakala MPS 523356
2014 07 08.46290 20 27 39.890 -22 03 19.95 20.5 i F51 – Pan-STARRS 1, Haleakala MPS 523356
2014 07 08.47485 20 27 39.339 -22 03 23.06 20.4 i F51 – Pan-STARRS 1, Haleakala MPS 523356
2014 07 27.37258 20 11 16.505 -23 22 56.01 20.2 w F51 – Pan-STARRS 1, Haleakala MPS 525248
2014 07 27.38475 20 11 15.808 -23 22 58.81 20.2 w F51 – Pan-STARRS 1, Haleakala MPS 525248
2014 07 27.39694 20 11 15.108 -23 23 01.71 20.3 w F51 – Pan-STARRS 1, Haleakala MPS 525248
2014 07 27.40912 20 11 14.404 -23 23 04.62 20.3 w F51 – Pan-STARRS 1, Haleakala MPS 525248
2014 07 29.35917 20 09 28.295 -23 30 24.54 20.3 w F51 – Pan-STARRS 1, Haleakala MPS 525248
2014 07 29.37131 20 09 27.608 -23 30 27.41 20.3 w F51 – Pan-STARRS 1, Haleakala MPS 525248
2014 07 29.39562 20 09 26.233 -23 30 32.82 20.4 w F51 – Pan-STARRS 1, Haleakala MPS 525248
2014 08 03.38217 20 05 01.725 -23 47 53.92 20.4 w F51 – Pan-STARRS 1, Haleakala MPS 526414
2014 08 03.39401 20 05 01.075 -23 47 56.26 20.4 w F51 – Pan-STARRS 1, Haleakala MPS 526414
2014 08 03.40587 20 05 00.439 -23 47 58.60 20.4 w F51 – Pan-STARRS 1, Haleakala MPS 526414
2014 08 03.41773 20 04 59.796 -23 48 00.85 20.5 w F51 – Pan-STARRS 1, Haleakala MPS 526414
2014 08 14.36173 19 56 30.517 -24 17 43.21 20.4 i F51 – Pan-STARRS 1, Haleakala MPS 527001
2014 08 14.37311 19 56 30.017 -24 17 44.84 20.5 i F51 – Pan-STARRS 1, Haleakala MPS 527001
2014 08 14.38444 19 56 29.550 -24 17 46.45 20.5 i F51 – Pan-STARRS 1, Haleakala MPS 527001
2014 08 14.39575 19 56 29.049 -24 17 47.50 20.4 i F51 – Pan-STARRS 1, Haleakala MPS 527001
2014 08 15.36421 19 55 50.677 -24 19 49.17 20.6 i F51 – Pan-STARRS 1, Haleakala MPS 527876
2014 08 15.37555 19 55 50.194 -24 19 50.64 20.3 i F51 – Pan-STARRS 1, Haleakala MPS 527876
2014 08 15.38685 19 55 49.730 -24 19 52.31 20.5 i F51 – Pan-STARRS 1, Haleakala MPS 527876
2014 08 15.39815 19 55 49.245 -24 19 53.40 20.6 i F51 – Pan-STARRS 1, Haleakala MPS 527876
2014 08 23.31470 19 51 26.027 -24 32 38.98 20.8 w F51 – Pan-STARRS 1, Haleakala MPS 529476
2014 08 23.32601 19 51 25.689 -24 32 39.72 20.9 w F51 – Pan-STARRS 1, Haleakala MPS 529476
2014 08 23.33735 19 51 25.354 -24 32 40.56 21.0 w F51 – Pan-STARRS 1, Haleakala MPS 529476
2014 08 23.34865 19 51 25.025 -24 32 41.29 20.9 w F51 – Pan-STARRS 1, Haleakala MPS 529476
